Flag for Angola Weather past 2 weeks in Luanda, Angola

Now
75 °F

Clear.


Feels Like: 76 °F
Forecast: 76 / 83 °F
Wind: 7 mph from South

Location: Luanda Airport

Current Time: Dec 29, 2014 at 12:45:51 AM

Latest Report: Dec 29, 2014 at 12:00 AM


Visibility: 10 mi

Pressure: 29.92 "Hg

Humidity: 78%

Dew point: 68 °F

Location of LuandaLocation

Historic Weather in Luanda — Graph

°F

Luanda temperature yesterday

Maximum temperature yesterday: 86 °F (at 12:00 PM)
Minimum temperature yesterday: 75 °F (at 1:00 AM)
Average temperature yesterday: 79 °F

Past Weeks' High & Low Weather Summary

 TemperatureHumidityPressure
High90 °F (Dec 20, 11:00 AM)100% (Dec 16, 6:00 AM)30.09 "Hg (Dec 16, 6:00 AM)
Low64 °F (Dec 16, 6:00 AM)55% (Dec 18, 2:00 PM)29.77 "Hg (Dec 14, 4:00 PM)
Average79 °F76%29.90 "Hg
* Reported Dec 13 11:00 PM — Dec 28 11:00 PM, Luanda, Weather by CustomWeather, © 2014

Note: Actual official high and low records may vary slightly from our data, if they occured in-between our weather recording intervals... More about our weather records

Advertising

Luanda weather history for previous 24 hours

 ConditionsComfort  
Time TempWeatherWind HumidityBarometerVisibility
11:00 PM
Dec 28
77 °FClear.7 mph74%29.92 "Hg10 mi
10:00 PM77 °FClear.9 mph74%29.92 "Hg10 mi
9:00 PM77 °FClear.10 mph74%29.89 "Hg10 mi
8:00 PM77 °FPassing clouds.12 mph74%29.89 "HgN/A
7:00 PM79 °FPassing clouds.14 mph70%29.86 "HgN/A
6:00 PM81 °FPartly sunny.12 mph66%29.83 "HgN/A
5:00 PM86 °FPartly sunny.9 mph59%29.89 "HgN/A
3:00 PM84 °FScattered clouds.14 mph62%29.86 "HgN/A
2:00 PM86 °FScattered clouds.12 mph59%29.89 "HgN/A
12:00 PM86 °FScattered clouds.9 mph59%29.92 "HgN/A
10:00 AM82 °FScattered clouds.7 mph66%29.98 "HgN/A
9:00 AM81 °FPartly sunny.7 mph70%29.95 "HgN/A
7:00 AM77 °FBroken clouds.5 mph79%29.95 "HgN/A
6:00 AM75 °FBroken clouds.6 mph83%29.92 "HgN/A
5:00 AM75 °FPassing clouds.2 mph83%29.92 "HgN/A
4:00 AM75 °FPassing clouds.6 mph83%29.89 "HgN/A
3:00 AM75 °FPassing clouds.6 mph83%29.89 "HgN/A
2:00 AM75 °FPassing clouds.2 mph83%29.89 "HgN/A
1:00 AM75 °FClear.5 mph83%29.89 "Hg10 mi
12:00 AM77 °FClear.7 mph79%29.89 "Hg10 mi
Weather by CustomWeather, © 2014

See weather overviewHow to use our weather pages